Location: Chuathbaluk
(61.5726°N, 159.2454°W)
Time: 12:44:06
(UTC+00:00)

UKube-1 - Visible Passes

Search period start: 16 January 2021 00:00
Search period end: 26 January 2021 00:00
Orbit: 612 x 618 km, 98.4° (Epoch: 16 January)

Date Brightness Start Highest point End Pass type
(mag) Time Alt. Az. Time Alt. Az. Time Alt. Az.
16 Jan ? 14:21:31 10° ENE 14:23:52 15° NE 14:24:44 14° NNE visible
16 Jan ? 15:54:51 10° SE 15:58:58 45° ENE 16:01:49 19° N visible
16 Jan ? 17:31:00 10° SSW 17:35:02 38° W 17:38:53 11° NNW visible
17 Jan ? 14:36:41 10° E 14:39:28 17° NE 14:40:51 15° NNE visible
17 Jan ? 16:10:29 10° SE 16:14:43 58° ENE 16:17:55 17° N visible
17 Jan ? 17:47:09 10° SSW 17:50:58 30° W 17:54:48 10° NNW visible
18 Jan ? 14:51:57 10° E 14:55:06 20° NE 14:56:57 16° NNE visible
18 Jan ? 16:26:11 10° SSE 16:30:29 74° ENE 16:34:02 15° NNW visible
18 Jan ? 18:03:25 10° SW 18:06:55 24° W 18:10:26 10° NW visible
19 Jan ? 15:07:17 10° ESE 15:10:44 24° NE 15:13:04 16° N visible
19 Jan ? 16:41:58 10° SSE 16:46:17 87° WSW 16:50:09 13° NNW visible
19 Jan ? 18:19:50 10° SW 18:22:54 19° W 18:25:59 10° NW visible
20 Jan ? 13:50:50 10° NE 13:51:36 10° NNE 13:52:08 10° NNE visible
20 Jan ? 15:22:42 10° ESE 15:26:24 29° NE 15:29:12 15° N visible
20 Jan ? 16:57:49 10° S 17:02:07 68° WSW 17:06:17 11° NNW visible
21 Jan ? 14:05:29 10° ENE 14:07:10 12° NE 14:08:16 11° NNE visible
21 Jan ? 15:38:10 10° ESE 15:42:06 35° ENE 15:45:20 14° N visible
21 Jan ? 17:13:45 10° S 17:17:58 52° WSW 17:22:13 10° NNW visible
22 Jan ? 14:20:29 10° ENE 14:22:44 14° NE 14:24:23 12° NNE visible
22 Jan ? 15:53:43 10° SE 15:57:48 44° ENE 16:01:28 13° N visible
22 Jan ? 17:29:47 10° S 17:33:51 40° W 17:37:57 10° NNW visible
23 Jan ? 14:35:38 10° E 14:38:20 17° NE 14:40:33 12° N visible
23 Jan ? 16:09:20 10° SE 16:13:33 55° ENE 16:17:37 11° NNW visible
23 Jan ? 17:45:54 10° SSW 17:49:46 31° W 17:53:39 10° NNW visible
24 Jan ? 14:50:52 10° E 14:53:56 19° NE 14:56:42 11° N visible
24 Jan ? 16:25:02 10° SSE 16:29:19 71° ENE 16:33:37 10° NNW visible
24 Jan ? 18:02:08 10° SSW 18:05:42 25° W 18:09:17 10° NW visible
25 Jan ? 15:06:11 10° E 15:09:35 23° NE 15:12:52 11° N visible
25 Jan ? 16:40:47 10° SSE 16:45:06 89° E 16:49:27 10° NNW visible
25 Jan ? 18:18:31 10° SW 18:21:41 20° W 18:24:50 10° NW visible
